Regional Weather Roundup
Issued by NWS

Home | Current Version | Previous Version | Graphics & Text | Print | Product List | Glossary Off
Versions: 1 2 3 4 5 6 7 8 9 10 11 12 13 14 15 16 17 18 19 20 21 22 23 24 25 26 27

000
ASUS43 KDMX 231607
RWRIA

WEATHER ROUNDUP FOR IOWA
NATIONAL WEATHER SERVICE DES MOINES IA
1100 AM CDT THU OCT 23 2014

NOTE: "FAIR" INDICATES FEW OR NO CLOUDS BELOW 12,000 FEET WITH NO
SIGNIFICANT WEATHER AND/OR OBSTRUCTIONS TO VISIBILITY.

* - THESE STATIONS ARE NOT NWS STATIONS...THUS NOT UNDER NWS
QUALITY CONTROL.  THEY ALSO DO NOT REPORT WEATHER SUCH
AS PRECIPITATION OR FOG.

IAZ001>003-012>014-020>022-031>034-043>046-231700-
   NORTHWEST IOWA

CITY           SKY/WX    TMP DP  RH WIND       PRES   REMARKS
CARROLL *      MOSUNNY   63  57  82 W6        30.05S
CHEROKEE *     CLOUDY    54  54 100 SW6       30.07R FOG
DENISON *      MOSUNNY   61  55  82 W5        30.05R
LE MARS *      PTSUNNY   54  54 100 S3        30.07R
ORANGE CITY *  SUNNY     57  54  88 W5        30.06R
SHELDON *      CLOUDY    52  52 100 VRB3      30.05S FOG
SIOUX CITY     SUNNY     59  53  80 CALM      30.07S
SPENCER        CLOUDY    53  52  96 W9        30.06R FOG
STORM LAKE *   CLOUDY    54  54 100 W8        30.07R FOG
$$

IAZ055>058-069>071-079>083-090>094-231700-
   SOUTHWEST IOWA

CITY           SKY/WX    TMP DP  RH WIND       PRES   REMARKS
ATLANTIC *     CLOUDY    63  59  88 W7        30.06S
AUDUBON *      PTSUNNY   61  55  82 W5        30.07R
CLARINDA *     PTSUNNY   64  59  82 SW9       30.08S
COUNCIL BLFS * MOSUNNY   63  61  94 W7        30.07R
CRESTON *      CLOUDY    57  57 100 W6        30.07S FOG
HARLAN  *      PTSUNNY   63  59  88 NW9       30.10R FOG
LAMONI         LGT RAIN  59  56  89 S8        30.08S
RED OAK *      PTSUNNY   64  61  88 W5G12     30.07R
SHENANDOAH *   MOSUNNY   64  61  88 W7        30.08R
$$

IAZ047>049-059>061-072>074-084-231700-
   CENTRAL IOWA

CITY           SKY/WX    TMP DP  RH WIND       PRES   REMARKS
AMES           CLOUDY    58  56  93 W5        30.05R FOG
ANKENY *       CLOUDY    59  57  94 SW6       30.05S
CHARITON *     CLOUDY    61  55  82 SW10      30.07S
DES MOINES     CLOUDY    59  56  89 SW8       30.05S
GRINNELL*      CLOUDY    54  48  82 S6        30.06S
KNOXVILLE *    CLOUDY    61  54  77 SW8G14    30.05S
MARSHALLTOWN   CLOUDY    53  51  93 SW5       30.05R
PELLA *        PTSUNNY   59  52  77 SW7       30.08R
PERRY *        CLOUDY    63  61  94 W5        30.05S FOG
$$

IAZ004>006-015-016-023>025-035-036-231700-
   NORTH CENTRAL IOWA

CITY           SKY/WX    TMP DP  RH WIND       PRES   REMARKS
ALGONA *       CLOUDY    54  54 100 W7        30.05S FOG
CLARION *      CLOUDY    57  57 100 NW7       30.04S
ESTHERVILLE    PTSUNNY   53  52  96 W7        30.04S
FORT DODGE *   CLOUDY    61  55  82 NW5       30.05S
MASON CITY     CLOUDY    53  52  96 SW6       30.05S FOG
FOREST CITY *  CLOUDY    54  54 100 CALM      30.03F
IOWA FALLS *   CLOUDY    54  54 100 SW6       30.05S FOG
$$

IAZ007>011-017>019-026>030-037>042-050>054-066-231700-
   NORTHEAST IOWA

CITY           SKY/WX    TMP DP  RH WIND       PRES   REMARKS
CEDAR RAPIDS   CLOUDY    49  45  86 S10       30.07F
CHARLES CITY * FOG       48  48 100 VRB6      30.06R VSB 1
CLINTON *      CLOUDY    52  43  71 S13       30.14F
DECORAH *      CLOUDY    46  45  93 S8        30.05R
DUBUQUE        CLOUDY    45  43  93 S14       30.10S
MONTICELLO *   PTSUNNY   48  46  93 S10       30.09F
OELWEIN *      CLOUDY    48  46  93 S12       30.07S
WATERLOO       CLOUDY    49  46  90 S8        30.06R
$$

IAZ064-065-067-068-078-231700-
   EAST CENTRAL IOWA

CITY           SKY/WX    TMP DP  RH WIND       PRES   REMARKS
DAVENPORT      CLOUDY    54  41  61 S12       30.13S
IOWA CITY      CLOUDY    50  47  89 SE7       30.10F
MT. PLEASANT * CLOUDY    55  45  67 S17       30.12R
MUSCATINE *    CLOUDY    54  45  71 SE6       30.11F
QUAD CITIES    CLOUDY    56  44  64 SE9       30.11F
$$

IAZ062-063-075>077-085>089-095>099-231700-
   SOUTHEAST IOWA

CITY           SKY/WX    TMP DP  RH WIND       PRES   REMARKS
BURLINGTON     CLOUDY    54  45  71 S16       30.12S
FAIRFIELD *    MOSUNNY   55  46  71 S10G16    30.10S
FORT MADISON * MOSUNNY   57  46  67 S10G18    30.12S
KEOKUK *       CLOUDY    54  45  71 S10G17    30.12S
OSKALOOSA *    CLOUDY    55  48  76 S12       30.08R
CENTERVILLE *  PTSUNNY   59  52  77 S9        30.11S
OTTUMWA        CLOUDY    57  48  72 S10       30.08R
WASHINGTON *   MOSUNNY   54  48  82 S10       30.09S
$$

ABBREVIATIONS USED IN REMARKS
   TC - TEMPERATURES IN CELSIUS
  WCI - WIND CHILL INDEX
   HX - HEAT INDEX
  VSB - VISIBILITY
$$




USA.gov is the U.S. government's official web portal to all federal, state and local government web resources and services.